User: anonymous   Login
Location: Caltech
(34.1382°N, 118.1253°W)
Time: 20:34:33
(UTC-08:00)
Language:

NOSS 3-4 (C) - Orbit

View from above orbital plane
View from above orbital plane
View from above satellite
View from above satellite

Ground track
Ground track

The orbit data is extracted from the following two-line orbital elements,

1 31708U 07027C   16335.76814961 0.00000000  00000-0  00000-0 0    08
2 31708  63.4030 229.3894 0172000  25.3033 334.6967 13.40717373    04
Epoch (UTC): 30 November 2016 18:26:08
Eccentricity: 0.0172000
inclination: 63.4030°
perigee height: 978 km
apogee height: 1235 km
right ascension of ascending node: 229.3894°
argument of perigee: 25.3033°
revolutions per day: 13.40717373
mean anomaly at epoch: 334.6967°
orbit number at epoch: 0

The dashed part of the orbit path shows where the satellite is in the earth's shadow,  

DLR